User: anonymous
Location: The Jewett Observatory
(46.7288°N, 117.1525°W)
Time: 03:15:19
(UTC-07:00)
Language:

Cosmos 1844 Rocket - Orbit

View from above orbital plane
View from above orbital plane
View from above satellite
View from above satellite

Ground track
Ground track

The orbit data is extracted from the following two-line orbital elements,

1 17974U 87041B   14110.35439396 -.00000186  00000-0 -68489-4 0   893
2 17974 071.0079 180.6491 0014602 346.4905 062.1923 14.17094963393212
Epoch (UTC): 20 April 2014 08:30:19
Eccentricity: 0.0014602
inclination: 71.0079°
perigee height: 824 km
apogee height: 846 km
right ascension of ascending node: 180.6491°
argument of perigee: 346.4905°
revolutions per day: 14.17094963
mean anomaly at epoch: 62.1923°
orbit number at epoch: 39321

The dashed part of the orbit path shows where the satellite is in the earth's shadow,  

DLR